Weather History for Pensacola, FL

Change the Weather History Date:

Tuesday, March 18, 2014

  Actual Average Record
Temperature  
Mean Temperature 55 °F 61 °F  
Max Temperature 63 °F 70 °F 83 °F (1955)
Min Temperature 47 °F 52 °F 33 °F (1892)
Degree Days  
Heating Degree Days 10 5  
Month to date heating degree days 151 121  
Since 1 July heating degree days 1488 1429  
Cooling Degree Days 0 1  
Month to date cooling degree days 1 17  
Year to date cooling degree days 16 31  
Growing Degree Days 4 (Base 50)    
Moisture  
Dew Point 44 °F    
Average Humidity 72    
Maximum Humidity 93    
Minimum Humidity 51    
Precipitation  
Precipitation T in 0.19 in 5.26 in (1951)
Month to date precipitation 4.17 3.45  
Year to date precipitation 15.50 13.14  
Snow  
Snow 0.00 in 0.00 in - ()
Month to date snowfall 0.0 0.0  
Since 1 July snowfall 1.0 0.0  
Snow Depth 0.00 in    
Sea Level Pressure  
Sea Level Pressure 29.92 in    
Wind  
Wind Speed 7 mph (NW)    
Max Wind Speed 15 mph    
Max Gust Speed 18 mph    
Visibility 10 miles    
Events Rain    
T = Trace of Precipitation, MM = Missing Value Source: NWS Daily Summary

Daily Weather History Graph

Daily Weather History Graph

Search for Another Location

Airport:

Trip Planner

Search our weather history database for the weather conditions in past years. The results will help you decide how hot, cold, wet, or windy it might be!

Date:

Astronomy

Mar. 18, 2014 Rise Set
Actual Time 6:54 AM CDT 6:58 PM CDT
Civil Twilight 6:31 AM CDT 7:22 PM CDT
Nautical Twilight 6:03 AM CDT 7:50 PM CDT
Astronomical Twilight 5:35 AM CDT 8:19 PM CDT
Moon 9:04 PM CDT (3/18) 7:53 AM CDT (3/18)
Length of Visible Light 12h 51m
Length of Day
12h 03m
Waning Gibbous, 96% of the Moon is Illuminated
Mar 18
Waning Gibbous
Mar 23
Last Quarter
Mar 30
New
Apr 7
First Quarter
Apr 15
Full

Hourly Weather History & Observations

Time (CDT) Temp. Dew Point Humidity Pressure Visibility Wind Dir Wind Speed Gust Speed Precip Events Conditions
12:01 AM 50.0 °F 44.1 °F 80% 29.82 in 10.0 mi North 6.9 mph - N/A   Overcast
12:53 AM 48.9 °F 45.0 °F 86% 29.84 in 8.0 mi NW 8.1 mph - 0.00 in   Overcast
1:06 AM 48.0 °F 45.0 °F 89% 29.83 in 6.0 mi NNW 11.5 mph - N/A   Overcast
1:18 AM 48.0 °F 44.1 °F 86% 29.83 in 5.0 mi NNW 10.4 mph - 0.00 in Rain Light Rain
1:53 AM 46.9 °F 44.1 °F 90% 29.83 in 8.0 mi North 5.8 mph - 0.00 in   Overcast
2:07 AM 46.9 °F 44.1 °F 90% 29.82 in 9.0 mi North 9.2 mph - N/A   Overcast
2:36 AM 46.9 °F 44.1 °F 90% 29.81 in 10.0 mi North 4.6 mph - N/A   Overcast
2:53 AM 48.0 °F 44.1 °F 86% 29.81 in 10.0 mi North 4.6 mph - N/A   Overcast
3:24 AM 48.0 °F 44.1 °F 86% 29.80 in 10.0 mi NNW 6.9 mph - N/A   Overcast
3:53 AM 46.9 °F 44.1 °F 90% 29.81 in 10.0 mi NW 9.2 mph - N/A   Overcast
4:38 AM 46.9 °F 43.0 °F 86% 29.83 in 10.0 mi WNW 9.2 mph - N/A   Overcast
4:53 AM 46.9 °F 43.0 °F 86% 29.86 in 10.0 mi WNW 9.2 mph - N/A   Overcast
5:53 AM 46.9 °F 42.1 °F 83% 29.88 in 10.0 mi WNW 9.2 mph - N/A   Overcast
6:53 AM 46.9 °F 43.0 °F 86% 29.91 in 10.0 mi NW 6.9 mph - N/A   Overcast
7:17 AM 46.9 °F 43.0 °F 86% 29.91 in 10.0 mi NW 5.8 mph - N/A   Overcast
7:53 AM 46.9 °F 42.1 °F 83% 29.94 in 10.0 mi NW 6.9 mph - N/A   Overcast
8:53 AM 48.9 °F 42.1 °F 77% 29.97 in 10.0 mi NNW 4.6 mph - N/A   Overcast
9:53 AM 53.1 °F 43.0 °F 69% 29.97 in 10.0 mi NNE 8.1 mph - N/A   Overcast
10:53 AM 55.0 °F 39.9 °F 57% 29.97 in 10.0 mi Variable 3.5 mph - N/A   Scattered Clouds
11:53 AM 57.9 °F 42.1 °F 56% 29.96 in 10.0 mi North 9.2 mph - N/A   Clear
12:53 PM 60.1 °F 43.0 °F 53% 29.95 in 10.0 mi ESE 8.1 mph - N/A   Clear
1:53 PM 62.1 °F 44.1 °F 52% 29.95 in 10.0 mi SSE 10.4 mph - N/A   Clear
2:53 PM 61.0 °F 44.1 °F 54% 29.95 in 10.0 mi SSE 9.2 mph - N/A   Clear
3:53 PM 61.0 °F 45.0 °F 56% 29.96 in 10.0 mi South 12.7 mph - N/A   Clear
4:53 PM 59.0 °F 45.0 °F 60% 29.96 in 10.0 mi South 12.7 mph - N/A   Clear
5:53 PM 57.9 °F 46.0 °F 65% 29.98 in 10.0 mi SSW 12.7 mph - N/A   Clear
6:53 PM 55.0 °F 46.0 °F 72% 29.99 in 10.0 mi SSW 9.2 mph - N/A   Clear
7:53 PM 53.1 °F 46.0 °F 77% 29.99 in 10.0 mi SSW 5.8 mph - N/A   Clear
8:53 PM 53.1 °F 46.0 °F 77% 30.01 in 10.0 mi SSW 3.5 mph - N/A   Clear
9:53 PM 53.1 °F 46.9 °F 80% 30.03 in 10.0 mi West 3.5 mph - N/A   Clear
10:38 PM 52.0 °F 46.9 °F 83% 30.04 in 10.0 mi Calm Calm - N/A   Mostly Cloudy
10:53 PM 52.0 °F 46.9 °F 83% 30.05 in 10.0 mi Calm Calm - N/A   Mostly Cloudy
11:53 PM 53.1 °F 48.0 °F 83% 30.05 in 10.0 mi WSW 3.5 mph - N/A   Overcast